Change the Weather History Date:

Thursday, April 24, 2014

  Actual Average Record
Temperature  
Mean Temperature 58 °F -  
Max Temperature 69 °F 65 °F 88 °F (2012)
Min Temperature 46 °F 38 °F 21 °F (1956)
Degree Days  
Heating Degree Days 6    
Growing Degree Days 8 (Base 50)    
Moisture  
Dew Point 23 °F    
Average Humidity 31    
Maximum Humidity 60    
Minimum Humidity 10    
Precipitation  
Precipitation 0.00 in - - ()
Sea Level Pressure  
Sea Level Pressure 29.77 in    
Wind  
Wind Speed 16 mph (NW)    
Max Wind Speed 31 mph    
Max Gust Speed 43 mph    
Visibility 10 miles    
Events Rain    
Averages and records for this station are not official NWS values.
T = Trace of Precipitation, MM = Missing Value Source: NWS Daily Summary

Daily Weather History Graph

Daily Weather History Graph

Search for Another Location

Airport or City:

Trip Planner

Search our weather history database for the weather conditions in past years. The results will help you decide how hot, cold, wet, or windy it might be!

Date:

Astronomy

Apr. 24, 2014 Rise Set
Actual Time 6:39 AM CDT 8:26 PM CDT
Civil Twilight 6:09 AM CDT 8:56 PM CDT
Nautical Twilight 5:33 AM CDT 9:33 PM CDT
Astronomical Twilight 4:53 AM CDT 10:13 PM CDT
Moon 3:58 AM CDT (4/24) 3:38 PM CDT (4/24)
Length of Visible Light 14h 47m
Length of Day
13h 47m
Waning Crescent, 24% of the Moon is Illuminated
Apr 24
Waning Crescent
Apr 29
New
May 6
First Quarter
May 14
Full
May 21
Last Quarter

Hourly Weather History & Observations

Time (CDT) Temp. Windchill Dew Point Humidity Pressure Visibility Wind Dir Wind Speed Gust Speed Precip Events Conditions
12:15 AM 56.7 °F - 41.7 °F 57% 29.69 in 10.0 mi WNW 10.4 mph - N/A   Light Drizzle
12:35 AM 55.9 °F - 39.6 °F 54% 29.69 in 10.0 mi NW 17.3 mph - N/A   Overcast
12:55 AM 55.4 °F - 38.8 °F 54% 29.70 in 10.0 mi NW 16.1 mph 24.2 mph N/A   Overcast
1:15 AM 54.7 °F - 39.2 °F 56% 29.70 in 10.0 mi NW 10.4 mph - N/A   Overcast
1:35 AM 54.7 °F - 39.0 °F 56% 29.70 in 10.0 mi NNW 8.1 mph - N/A   Overcast
1:55 AM 54.7 °F - 37.8 °F 53% 29.69 in 10.0 mi NNW 16.1 mph - N/A   Overcast
2:15 AM 54.5 °F - 36.7 °F 51% 29.70 in 10.0 mi NW 17.3 mph - N/A   Light Drizzle
2:35 AM 54.5 °F - 36.5 °F 51% 29.70 in 10.0 mi NW 16.1 mph - N/A   Light Drizzle
2:55 AM 54.0 °F - 36.1 °F 51% 29.71 in 10.0 mi NNW 15.0 mph 26.5 mph N/A Rain Light Rain
3:15 AM 53.4 °F - 36.7 °F 53% 29.71 in 10.0 mi NNW 18.4 mph - N/A   Light Drizzle
3:50 AM 53.6 °F - 34.9 °F 49% 29.70 in 10.0 mi NNW 18.4 mph 24.2 mph N/A   Overcast
4:15 AM 53.6 °F - 34.7 °F 49% 29.71 in 10.0 mi NW 16.1 mph 20.7 mph N/A   Overcast
4:55 AM 53.6 °F - 34.3 °F 48% 29.70 in 10.0 mi NNW 13.8 mph 20.7 mph N/A   Overcast
5:15 AM 53.1 °F - 34.3 °F 49% 29.71 in 10.0 mi NW 12.7 mph - N/A   Overcast
5:35 AM 52.7 °F - 34.5 °F 50% 29.72 in 10.0 mi NW 13.8 mph - N/A   Overcast
5:55 AM 52.0 °F - 34.3 °F 51% 29.72 in 10.0 mi NNW 13.8 mph - N/A   Overcast
6:15 AM 51.4 °F - 34.5 °F 52% 29.74 in 10.0 mi NW 12.7 mph - N/A   Mostly Cloudy
6:35 AM 51.1 °F - 34.7 °F 54% 29.75 in 10.0 mi NNW 16.1 mph 21.9 mph N/A   Scattered Clouds
6:55 AM 50.0 °F - 35.2 °F 57% 29.76 in 10.0 mi NW 12.7 mph - N/A   Scattered Clouds
7:15 AM 49.5 °F - 35.6 °F 59% 29.76 in 10.0 mi NW 12.7 mph - N/A   Clear
7:35 AM 49.1 °F - 35.8 °F 60% 29.78 in 10.0 mi NW 12.7 mph 16.1 mph N/A   Clear
7:55 AM 49.5 °F - 34.9 °F 57% 29.78 in 10.0 mi NW 13.8 mph - N/A   Clear
8:15 AM 49.6 °F - 34.0 °F 55% 29.79 in 10.0 mi NW 12.7 mph - N/A   Clear
8:35 AM 50.5 °F - 34.7 °F 55% 29.80 in 10.0 mi NW 13.8 mph - N/A   Clear
8:55 AM 53.1 °F - 33.4 °F 47% 29.79 in 10.0 mi NW 17.3 mph 23.0 mph N/A   Clear
9:15 AM 54.3 °F - 32.0 °F 43% 29.80 in 10.0 mi NW 21.9 mph 27.6 mph N/A   Clear
9:35 AM 56.5 °F - 30.7 °F 38% 29.79 in 10.0 mi NNW 21.9 mph 28.8 mph N/A   Clear
9:55 AM 58.1 °F - 29.1 °F 33% 29.79 in 10.0 mi NNW 23.0 mph 31.1 mph N/A   Clear
10:15 AM 59.4 °F - 27.1 °F 29% 29.79 in 10.0 mi NNW 24.2 mph 32.2 mph N/A   Clear
10:35 AM 61.3 °F - 24.6 °F 25% 29.78 in 10.0 mi NNW 20.7 mph 31.1 mph N/A   Clear
10:55 AM 62.8 °F - 18.9 °F 18% 29.78 in 10.0 mi NNW 25.3 mph 35.7 mph N/A   Clear
11:15 AM 63.7 °F - 18.0 °F 17% 29.79 in 10.0 mi NNW 31.1 mph 38.0 mph N/A   Clear
11:35 AM 64.4 °F - 16.5 °F 16% 29.79 in 10.0 mi NNW 25.3 mph 32.2 mph N/A   Clear
11:55 AM 64.4 °F - 13.6 °F 14% 29.79 in 10.0 mi NNW 25.3 mph 34.5 mph N/A   Clear
12:15 PM 65.1 °F - 12.2 °F 13% 29.80 in 10.0 mi NW 28.8 mph 38.0 mph N/A   Clear
12:35 PM 66.4 °F - 13.8 °F 13% 29.79 in 10.0 mi NW 26.5 mph 33.4 mph N/A   Clear
12:55 PM 66.4 °F - 12.0 °F 12% 29.79 in 10.0 mi NNW 27.6 mph 33.4 mph N/A   Clear
1:15 PM 66.7 °F - 14.0 °F 13% 29.79 in 10.0 mi NW 18.4 mph 35.7 mph N/A   Clear
1:35 PM 66.7 °F - 11.7 °F 12% 29.79 in 10.0 mi NW 25.3 mph 33.4 mph N/A   Clear
1:55 PM 67.6 °F - 11.7 °F 11% 29.79 in 10.0 mi NW 24.2 mph 33.4 mph N/A   Clear
2:15 PM 68.0 °F - 9.7 °F 10% 29.78 in 10.0 mi NW 29.9 mph 35.7 mph N/A   Clear
2:35 PM 68.5 °F - 11.3 °F 11% 29.78 in 10.0 mi NW 24.2 mph 29.9 mph N/A   Clear
2:55 PM 68.2 °F - 8.4 °F 10% 29.78 in 10.0 mi NW 21.9 mph 31.1 mph N/A   Clear
3:15 PM 68.9 °F - 9.3 °F 10% 29.78 in 10.0 mi NW 20.7 mph 32.2 mph N/A   Clear
3:35 PM 68.5 °F - 10.8 °F 11% 29.77 in 10.0 mi NNW 29.9 mph 42.6 mph N/A   Clear
3:55 PM 68.7 °F - 12.6 °F 11% 29.77 in 10.0 mi NW 17.3 mph 33.4 mph N/A   Clear
4:15 PM 68.2 °F - 12.2 °F 11% 29.77 in 10.0 mi NNW 24.2 mph 33.4 mph N/A   Clear
4:35 PM 68.7 °F - 10.2 °F 10% 29.76 in 10.0 mi NW 19.6 mph 28.8 mph N/A   Clear
4:55 PM 68.9 °F - 10.6 °F 10% 29.76 in 10.0 mi WNW 23.0 mph 31.1 mph N/A   Clear
5:15 PM 68.7 °F - 10.6 °F 11% 29.76 in 10.0 mi NW 21.9 mph 28.8 mph N/A   Clear
5:35 PM 68.9 °F - 10.0 °F 10% 29.76 in 10.0 mi NW 18.4 mph 28.8 mph N/A   Clear
5:55 PM 68.4 °F - 10.0 °F 10% 29.76 in 10.0 mi NW 19.6 mph 27.6 mph N/A   Clear
6:15 PM 68.0 °F - 11.1 °F 11% 29.76 in 10.0 mi NW 20.7 mph 31.1 mph N/A   Clear
6:35 PM 67.6 °F - 9.7 °F 10% 29.75 in 10.0 mi NW 21.9 mph 28.8 mph N/A   Clear
6:55 PM 67.1 °F - 10.6 °F 11% 29.76 in 10.0 mi NNW 17.3 mph 25.3 mph N/A   Clear
7:15 PM 66.2 °F - 12.2 °F 12% 29.76 in 10.0 mi NNW 18.4 mph 24.2 mph N/A   Clear
7:35 PM 64.8 °F - 14.4 °F 14% 29.77 in 10.0 mi NNW 13.8 mph 24.2 mph N/A   Clear
7:55 PM 63.0 °F - 16.2 °F 16% 29.77 in 10.0 mi NNW 11.5 mph - N/A   Clear
8:15 PM 58.6 °F - 19.0 °F 21% 29.78 in 10.0 mi NNW 8.1 mph - N/A   Clear
8:35 PM 55.9 °F - 19.2 °F 24% 29.79 in 10.0 mi NW 4.6 mph - N/A   Clear
8:55 PM 55.4 °F - 18.7 °F 24% 29.80 in 10.0 mi NNW 5.8 mph - N/A   Clear
9:15 PM 54.7 °F - 18.5 °F 24% 29.80 in 10.0 mi North 4.6 mph - N/A   Clear
9:35 PM 54.3 °F - 18.9 °F 25% 29.81 in 10.0 mi Calm Calm - N/A   Clear
9:55 PM 52.0 °F - 18.5 °F 27% 29.81 in 10.0 mi North 3.5 mph - N/A   Clear
10:15 PM 54.5 °F - 19.0 °F 25% 29.82 in 10.0 mi NNE 3.5 mph - N/A   Clear
10:35 PM 50.5 °F - 19.8 °F 30% 29.83 in 10.0 mi Calm Calm - N/A   Clear
10:55 PM 49.6 °F - 19.6 °F 31% 29.82 in 10.0 mi Calm Calm - N/A   Clear
11:15 PM 51.8 °F - 19.4 °F 28% 29.82 in 10.0 mi Calm Calm - N/A   Clear
11:35 PM 50.4 °F - 20.8 °F 31% 29.82 in 10.0 mi Calm Calm - N/A   Clear
11:55 PM 46.2 °F 45.0 °F 27.7 °F 48% 29.82 in 10.0 mi SSW 3.5 mph - N/A   Clear